This is the latest recevied weather packets stored in our database for station/object W8CEN. If no packets are shown the sender has not sent any weather packets the latest 10 day(s).
| Time | Temp. | Humidity | Pressure | Rain* | Wind** | Luminosity | Snow |
|---|---|---|---|---|---|---|---|
| 1777659221 | 6.67° C | 84% | 992.7 hPa | 0 mm | - | 188 W/m² | - |
| 1777658918 | 6.67° C | 83% | 992.7 hPa | 0 mm | - | 167 W/m² | - |
| 1777658613 | 7.22° C | 85% | 992.7 hPa | 0 mm | - | 140 W/m² | - |
| 1777658311 | 7.78° C | 85% | 992.7 hPa | 0 mm | - | 110 W/m² | - |
| 1777658007 | 7.78° C | 80% | 992.5 hPa | 0 mm | - | 89 W/m² | - |
| 1777657704 | 7.78° C | 79% | 992.4 hPa | 0 mm | - | 130 W/m² | - |
| 1777657401 | 7.78° C | 77% | 992.3 hPa | 0 mm | - | 232 W/m² | - |
| 1777657100 | 7.78° C | 76% | 992.4 hPa | 0 mm | - | 300 W/m² | - |
| 1777656797 | 7.78° C | 75% | 992.3 hPa | 0 mm | - | 423 W/m² | - |
| 1777656492 | 7.78° C | 76% | 992.2 hPa | 0 mm | - | 365 W/m² | - |
| 1777656187 | 7.78° C | 77% | 992.4 hPa | 0 mm | - | 268 W/m² | - |
| 1777655883 | 7.78° C | 79% | 992.2 hPa | 0 mm | - | 238 W/m² | - |
| 1777655580 | 7.78° C | 80% | 992.4 hPa | 0 mm | - | 240 W/m² | - |
| 1777655277 | 7.78° C | 83% | 992.4 hPa | 0 mm | - | 237 W/m² | - |
| 1777654974 | 7.22° C | 80% | 992.2 hPa | 0 mm | - | 242 W/m² | - |
| 1777654671 | 7.22° C | 79% | 992.4 hPa | 0 mm | - | 170 W/m² | - |
| 1777654369 | 7.78° C | 78% | 992.5 hPa | 0 mm | - | 118 W/m² | - |
| 1777654067 | 7.78° C | 78% | 992.3 hPa | 0 mm | - | 251 W/m² | - |
| 1777653764 | 7.78° C | 80% | 992 hPa | 0 mm | - | 213 W/m² | - |
| 1777653459 | 7.78° C | 79% | 991.9 hPa | 0 mm | - | 225 W/m² | - |
| 1777653157 | 7.78° C | 80% | 992 hPa | 0 mm | - | 277 W/m² | - |
| 1777652853 | 7.78° C | 81% | 991.8 hPa | 0 mm | - | 314 W/m² | - |
| 1777652549 | 7.78° C | 86% | 991.8 hPa | 0 mm | - | 437 W/m² | - |
| 1777652247 | 7.22° C | 85% | 991.7 hPa | 0 mm | - | 190 W/m² | - |
| 1777651944 | 7.78° C | 85% | 991.8 hPa | 0 mm | - | 140 W/m² | - |
* Rain latest hour (hover to see other rain measurements)
** Current wind speed in m/s (hover to see current wind gust speed)